Time,TemperatureF,DewpointF,PressureIn,WindDirection,WindDirectionDegrees,WindSpeedMPH,WindSpeedGustMPH,Humidity,HourlyPrecipIn,Conditions,Clouds,dailyrainin,SoftwareType,DateUTC
2013-06-25 00:09:00,72.2,65.0,29.81,SSE,165,1.0,3.0,79,0.00,,,0.00,weatherlink.com 1.10,2013-06-25 04:09:00,
2013-06-25 00:25:00,71.4,65.0,29.80,South,170,1.0,4.0,79,0.00,,,0.00,weatherlink.com 1.10,2013-06-25 04:25:00,
2013-06-25 00:40:00,72.3,66.0,29.81,SSE,160,1.0,2.0,80,0.00,,,0.00,weatherlink.com 1.10,2013-06-25 04:40:00,
2013-06-25 00:55:00,72.8,66.0,29.81,South,186,0.0,1.0,79,0.00,,,0.00,weatherlink.com 1.10,2013-06-25 04:55:00,
2013-06-25 01:10:00,73.5,67.0,29.81,SSW,192,0.0,2.0,80,0.00,,,0.00,weatherlink.com 1.10,2013-06-25 05:10:00,
2013-06-25 01:25:00,73.9,67.0,29.80,South,169,0.0,1.0,78,0.00,,,0.00,weatherlink.com 1.10,2013-06-25 05:25:00,
2013-06-25 01:40:00,73.4,67.0,29.80,SSW,205,0.0,1.0,79,0.00,,,0.00,weatherlink.com 1.10,2013-06-25 05:40:00,
2013-06-25 01:55:00,73.4,67.0,29.79,SSW,206,0.0,1.0,79,0.00,,,0.00,weatherlink.com 1.10,2013-06-25 05:55:00,
2013-06-25 02:10:00,72.8,66.0,29.78,SW,236,1.0,1.0,80,0.00,,,0.00,weatherlink.com 1.10,2013-06-25 06:10:00,
2013-06-25 02:25:00,71.5,66.0,29.78,SW,230,0.0,1.0,83,0.00,,,0.00,weatherlink.com 1.10,2013-06-25 06:25:00,
2013-06-25 02:40:00,70.2,66.0,29.78,SW,230,0.0,0.0,86,0.00,,,0.00,weatherlink.com 1.10,2013-06-25 06:40:00,
2013-06-25 02:55:00,69.6,66.0,29.78,SW,231,0.0,0.0,87,0.00,,,0.00,weatherlink.com 1.10,2013-06-25 06:55:00,
2013-06-25 03:10:00,69.7,66.0,29.78,SW,228,0.0,1.0,89,0.00,,,0.00,weatherlink.com 1.10,2013-06-25 07:10:00,
2013-06-25 03:25:00,68.0,65.0,29.78,SW,231,1.0,1.0,90,0.00,,,0.00,weatherlink.com 1.10,2013-06-25 07:25:00,
2013-06-25 03:40:00,67.9,65.0,29.78,SSW,211,0.0,1.0,91,0.00,,,0.00,weatherlink.com 1.10,2013-06-25 07:40:00,
2013-06-25 03:55:00,67.6,65.0,29.78,SSW,211,0.0,0.0,92,0.00,,,0.00,weatherlink.com 1.10,2013-06-25 07:55:00,
2013-06-25 04:10:00,67.5,66.0,29.78,SSW,211,0.0,0.0,93,0.00,,,0.00,weatherlink.com 1.10,2013-06-25 08:10:00,
2013-06-25 04:25:00,67.3,65.0,29.79,SSW,213,0.0,1.0,93,0.00,,,0.00,weatherlink.com 1.10,2013-06-25 08:25:00,
2013-06-25 04:40:00,67.0,65.0,29.79,SSW,193,0.0,1.0,94,0.00,,,0.00,weatherlink.com 1.10,2013-06-25 08:40:00,
2013-06-25 04:55:00,66.4,65.0,29.79,SW,231,0.0,1.0,94,0.00,,,0.00,weatherlink.com 1.10,2013-06-25 08:55:00,
2013-06-25 05:10:00,66.4,65.0,29.80,SW,232,0.0,1.0,94,0.00,,,0.00,weatherlink.com 1.10,2013-06-25 09:10:00,
2013-06-25 05:25:00,66.6,65.0,29.80,SW,227,0.0,0.0,95,0.00,,,0.00,weatherlink.com 1.10,2013-06-25 09:25:00,
2013-06-25 05:40:00,67.0,65.0,29.81,SSW,211,0.0,1.0,94,0.00,,,0.00,weatherlink.com 1.10,2013-06-25 09:40:00,
2013-06-25 05:55:00,66.4,65.0,29.81,South,186,0.0,1.0,94,0.00,,,0.00,weatherlink.com 1.10,2013-06-25 09:55:00,
2013-06-25 06:10:00,66.7,65.0,29.81,South,169,0.0,2.0,93,0.00,,,0.00,weatherlink.com 1.10,2013-06-25 10:10:00,
2013-06-25 06:25:00,67.7,66.0,29.81,South,170,0.0,0.0,93,0.00,,,0.00,weatherlink.com 1.10,2013-06-25 10:25:00,
2013-06-25 06:40:00,68.9,66.0,29.81,SSW,195,0.0,1.0,91,0.00,,,0.00,weatherlink.com 1.10,2013-06-25 10:40:00,
2013-06-25 06:55:00,70.3,67.0,29.81,South,174,1.0,1.0,88,0.00,,,0.00,weatherlink.com 1.10,2013-06-25 10:55:00,
2013-06-25 07:10:00,72.4,67.0,29.81,South,176,0.0,1.0,84,0.00,,,0.00,weatherlink.com 1.10,2013-06-25 11:10:00,
2013-06-25 07:25:00,74.0,67.0,29.81,South,176,0.0,1.0,79,0.00,,,0.00,weatherlink.com 1.10,2013-06-25 11:25:00,
2013-06-25 07:40:00,75.8,67.0,29.81,South,176,1.0,1.0,75,0.00,,,0.00,weatherlink.com 1.10,2013-06-25 11:40:00,
2013-06-25 07:55:00,76.8,67.0,29.81,South,174,0.0,1.0,71,0.00,,,0.00,weatherlink.com 1.10,2013-06-25 11:55:00,
2013-06-25 08:10:00,76.5,67.0,29.81,South,172,0.0,2.0,73,0.00,,,0.00,weatherlink.com 1.10,2013-06-25 12:10:00,
2013-06-25 08:25:00,76.2,66.0,29.81,SSE,158,3.0,5.0,70,0.00,,,0.00,weatherlink.com 1.10,2013-06-25 12:25:00,
2013-06-25 08:40:00,73.7,66.0,29.80,SSE,153,3.0,4.0,78,0.00,,,0.00,weatherlink.com 1.10,2013-06-25 12:40:00,
2013-06-25 08:55:00,73.6,68.0,29.80,South,172,0.0,4.0,82,0.00,,,0.00,weatherlink.com 1.10,2013-06-25 12:55:00,
2013-06-25 09:10:00,71.3,65.0,29.80,SSE,160,6.0,9.0,79,0.00,,,0.00,weatherlink.com 1.10,2013-06-25 13:10:00,
2013-06-25 09:25:00,69.8,64.0,29.80,SSE,165,6.0,9.0,83,0.00,,,0.00,weatherlink.com 1.10,2013-06-25 13:25:00,
2013-06-25 09:40:00,69.8,64.0,29.79,SSE,148,6.0,9.0,83,0.00,,,0.00,weatherlink.com 1.10,2013-06-25 13:40:00,
2013-06-25 09:55:00,70.6,65.0,29.79,SSE,159,7.0,9.0,82,0.00,,,0.00,weatherlink.com 1.10,2013-06-25 13:55:00,
2013-06-25 10:10:00,71.1,66.0,29.79,SSE,161,7.0,9.0,84,0.00,,,0.00,weatherlink.com 1.10,2013-06-25 14:10:00,
2013-06-25 10:26:00,70.8,65.0,29.79,SSE,165,6.0,9.0,81,0.00,,,0.00,weatherlink.com 1.10,2013-06-25 14:26:00,
2013-06-25 10:41:00,71.1,65.0,29.79,South,190,1.0,10.0,81,0.00,,,0.00,weatherlink.com 1.10,2013-06-25 14:41:00,
2013-06-25 10:56:00,69.7,64.0,29.79,SSE,154,5.0,6.0,81,0.00,,,0.00,weatherlink.com 1.10,2013-06-25 14:56:00,
2013-06-25 11:11:00,68.9,63.0,29.79,SE,146,6.0,10.0,82,0.00,,,0.00,weatherlink.com 1.10,2013-06-25 15:11:00,
2013-06-25 11:26:00,72.4,65.0,29.79,SE,142,7.0,9.0,78,0.00,,,0.00,weatherlink.com 1.10,2013-06-25 15:26:00,
2013-06-25 11:41:00,72.6,65.0,29.79,SSE,164,8.0,10.0,77,0.00,,,0.00,weatherlink.com 1.10,2013-06-25 15:41:00,
2013-06-25 11:56:00,74.4,65.0,29.79,SSE,162,7.0,8.0,72,0.00,,,0.00,weatherlink.com 1.10,2013-06-25 15:56:00,
2013-06-25 12:11:00,75.5,65.0,29.78,SSE,156,6.0,7.0,71,0.00,,,0.00,weatherlink.com 1.10,2013-06-25 16:11:00,
2013-06-25 12:26:00,75.5,65.0,29.78,SSE,155,7.0,8.0,71,0.00,,,0.00,weatherlink.com 1.10,2013-06-25 16:26:00,
2013-06-25 12:41:00,75.9,65.0,29.77,SSE,165,9.0,9.0,70,0.00,,,0.00,weatherlink.com 1.10,2013-06-25 16:41:00,
2013-06-25 12:56:00,73.0,65.0,29.77,SSE,163,7.0,9.0,75,0.00,,,0.00,weatherlink.com 1.10,2013-06-25 16:56:00,
2013-06-25 13:11:00,71.7,64.0,29.77,SSE,163,7.0,8.0,76,0.00,,,0.00,weatherlink.com 1.10,2013-06-25 17:11:00,
2013-06-25 13:26:00,72.1,64.0,29.77,SSE,159,9.0,10.0,76,0.00,,,0.00,weatherlink.com 1.10,2013-06-25 17:26:00,
2013-06-25 13:41:00,69.4,64.0,29.76,SSE,166,7.0,9.0,83,0.00,,,0.00,weatherlink.com 1.10,2013-06-25 17:41:00,
2013-06-25 13:56:00,73.1,65.0,29.76,SSE,163,7.0,9.0,75,0.00,,,0.00,weatherlink.com 1.10,2013-06-25 17:56:00,
2013-06-25 14:11:00,73.5,66.0,29.75,SSE,160,7.0,9.0,76,0.00,,,0.00,weatherlink.com 1.10,2013-06-25 18:11:00,
2013-06-25 14:26:00,74.0,66.0,29.75,SSE,159,7.0,8.0,76,0.00,,,0.00,weatherlink.com 1.10,2013-06-25 18:26:00,
2013-06-25 14:41:00,71.0,65.0,29.74,South,170,7.0,9.0,81,0.00,,,0.00,weatherlink.com 1.10,2013-06-25 18:41:00,
2013-06-25 14:56:00,68.5,64.0,29.73,SSE,163,9.0,10.0,86,0.00,,,0.00,weatherlink.com 1.10,2013-06-25 18:56:00,
2013-06-25 15:11:00,68.3,65.0,29.72,SSE,148,8.0,10.0,88,0.00,,,0.00,weatherlink.com 1.10,2013-06-25 19:11:00,
2013-06-25 15:26:00,72.3,66.0,29.71,SSE,162,7.0,8.0,81,0.00,,,0.00,weatherlink.com 1.10,2013-06-25 19:26:00,
2013-06-25 15:41:00,70.9,65.0,29.70,SSE,155,9.0,9.0,81,0.00,,,0.00,weatherlink.com 1.10,2013-06-25 19:41:00,
2013-06-25 15:56:00,69.0,66.0,29.70,SSE,152,3.0,11.0,89,0.00,,,0.00,weatherlink.com 1.10,2013-06-25 19:56:00,
2013-06-25 16:11:00,69.1,65.0,29.70,SSE,152,4.0,8.0,87,0.00,,,0.00,weatherlink.com 1.10,2013-06-25 20:11:00,
2013-06-25 16:26:00,70.3,66.0,29.70,SSE,158,7.0,8.0,85,0.00,,,0.00,weatherlink.com 1.10,2013-06-25 20:26:00,
2013-06-25 16:41:00,70.2,66.0,29.68,SSE,163,9.0,10.0,85,0.00,,,0.00,weatherlink.com 1.10,2013-06-25 20:41:00,
2013-06-25 16:56:00,68.6,65.0,29.69,SSE,153,5.0,10.0,89,0.00,,,0.00,weatherlink.com 1.10,2013-06-25 20:56:00,
2013-06-25 17:11:00,69.3,66.0,29.69,SSE,166,0.0,7.0,88,0.00,,,0.00,weatherlink.com 1.10,2013-06-25 21:11:00,
2013-06-25 17:26:00,68.8,65.0,29.69,SE,142,1.0,5.0,87,0.00,,,0.00,weatherlink.com 1.10,2013-06-25 21:26:00,
2013-06-25 17:41:00,68.2,65.0,29.70,South,177,1.0,4.0,89,0.00,,,0.00,weatherlink.com 1.10,2013-06-25 21:41:00,
2013-06-25 17:56:00,68.4,65.0,29.69,South,186,1.0,3.0,89,0.00,,,0.00,weatherlink.com 1.10,2013-06-25 21:56:00,
2013-06-25 18:11:00,68.6,66.0,29.68,SSW,212,0.0,1.0,90,0.00,,,0.00,weatherlink.com 1.10,2013-06-25 22:11:00,
2013-06-25 18:26:00,68.8,66.0,29.70,SSW,192,0.0,1.0,89,0.00,,,0.00,weatherlink.com 1.10,2013-06-25 22:26:00,
2013-06-25 18:41:00,69.3,66.0,29.70,SSW,204,0.0,1.0,90,0.00,,,0.00,weatherlink.com 1.10,2013-06-25 22:41:00,
2013-06-25 18:56:00,69.4,66.0,29.71,South,177,1.0,3.0,88,0.00,,,0.00,weatherlink.com 1.10,2013-06-25 22:56:00,
2013-06-25 19:11:00,69.3,67.0,29.72,South,170,5.0,13.0,93,0.06,,,0.06,weatherlink.com 1.10,2013-06-25 23:11:00,
2013-06-25 19:26:00,71.4,68.0,29.69,SE,145,6.0,12.0,88,0.41,,,0.41,weatherlink.com 1.10,2013-06-25 23:26:00,
2013-06-25 19:41:00,70.8,67.0,29.69,NW,322,1.0,3.0,88,0.42,,,0.42,weatherlink.com 1.10,2013-06-25 23:41:00,
2013-06-25 19:56:00,70.9,68.0,29.72,ESE,122,7.0,12.0,91,0.42,,,0.42,weatherlink.com 1.10,2013-06-25 23:56:00,
2013-06-25 20:11:00,69.9,67.0,29.71,ESE,107,7.0,9.0,91,0.47,,,0.53,weatherlink.com 1.10,2013-06-26 00:11:00,
2013-06-25 20:26:00,69.4,67.0,29.72,SE,135,0.0,5.0,92,0.12,,,0.53,weatherlink.com 1.10,2013-06-26 00:26:00,
2013-06-25 20:41:00,68.7,67.0,29.75,ENE,60,2.0,5.0,93,0.11,,,0.53,weatherlink.com 1.10,2013-06-26 00:41:00,
2013-06-25 20:56:00,68.5,67.0,29.75,East,86,0.0,8.0,94,0.17,,,0.59,weatherlink.com 1.10,2013-06-26 00:56:00,
2013-06-25 21:11:00,68.4,67.0,29.72,SE,142,0.0,2.0,95,0.12,,,0.65,weatherlink.com 1.10,2013-06-26 01:11:00,
2013-06-25 21:26:00,68.4,67.0,29.71,SE,127,2.0,3.0,96,0.13,,,0.66,weatherlink.com 1.10,2013-06-26 01:26:00,
2013-06-25 21:41:00,68.3,67.0,29.70,SSE,168,2.0,3.0,96,0.12,,,0.66,weatherlink.com 1.10,2013-06-26 01:41:00,
2013-06-25 21:56:00,68.3,67.0,29.70,SE,124,0.0,1.0,96,0.07,,,0.66,weatherlink.com 1.10,2013-06-26 01:56:00,
2013-06-25 22:11:00,68.0,67.0,29.70,NNE,22,3.0,3.0,96,0.01,,,0.66,weatherlink.com 1.10,2013-06-26 02:11:00,
2013-06-25 22:26:00,67.0,66.0,29.70,ENE,73,1.0,4.0,96,0.00,,,0.66,weatherlink.com 1.10,2013-06-26 02:26:00,
2013-06-25 22:41:00,65.2,64.0,29.71,NNW,330,4.0,7.0,95,0.00,,,0.66,weatherlink.com 1.10,2013-06-26 02:41:00,
2013-06-25 22:56:00,65.3,65.0,29.70,NNE,13,2.0,6.0,97,0.00,,,0.66,weatherlink.com 1.10,2013-06-26 02:56:00,
2013-06-25 23:11:00,64.8,64.0,29.70,ENE,75,2.0,3.0,96,0.00,,,0.66,weatherlink.com 1.10,2013-06-26 03:11:00,
2013-06-25 23:27:00,64.2,63.0,29.70,East,87,0.0,3.0,97,0.00,,,0.66,weatherlink.com 1.10,2013-06-26 03:27:00,
2013-06-25 23:42:00,64.6,64.0,29.69,East,84,0.0,0.0,97,0.00,,,0.66,weatherlink.com 1.10,2013-06-26 03:42:00,
2013-06-25 23:57:00,64.4,64.0,29.69,East,95,0.0,0.0,97,0.00,,,0.66,weatherlink.com 1.10,2013-06-26 03:57:00,